sat.trackr.live / text

‹ back to catalog

STARLINK-6085

NORAD 57115 · 2023-090Q

PAYLOAD ACTIVE UNKNOWN

§ Identity

Operator
Country
US
Launch date
2023-06-23
Launch site
AFETR
Launch vehicle
Mass (kg)
RCS (m²)

Purposes: comms

External: N2YO · Heavens-Above · Gunter

§ Orbital elements

Epoch: 2026-09-20T08:31:23.957760Z

Period
94.68 min
Inclination
42.9996°
Eccentricity
0.0017563
Mean motion
15.20976875 rev/d
Perigee alt
490.8 km
Apogee alt
515.0 km
Semi-major
6,881.0 km
B*
6.8149e-4
RAAN
261.4305°
Arg perigee
18.6009°
Mean anomaly
341.5479°
Rev number
18,011

§ Raw data

STARLINK-60851 57115U 23090Q   26263.35513840  .00015237  00000+0  68149-3 0  99992 57115  42.9996 261.4305 0017563  18.6009 341.5479 15.20976875180111

JSON: /api/v1/satellites/57115 · /tle

For live sub-satellite position, see the globe view (requires WebGL).

§ Visibility from observer

Set your observer location to see the next 7 days of passes ≥ 10°. The values pass through the URL so the page stays shareable.

No JS? Fill the form by hand. The geolocation button needs JavaScript.